"2010-03-15 00:00:00",1762839,10.91,59.59,3.619,0.547,6.702,100.2717,-0.007,1.29,82.7,0,109.6,13.6,0.75,21.6
"2010-03-15 00:00:30",1762840,11.01,59.08,4.999,0.375,6.816,100.2647,-0.025,1.285,82.8,0,109.6,13.6,0.73,21.1
"2010-03-15 00:01:00",1762841,10.94,61.77,4.041,0.782,6.642,100.2522,-0.057,1.279,82.9,0,109.6,13.6,0.70,23.8
"2010-03-15 00:01:30",1762842,10.78,64.72,4.253,0.736,6.715,100.2446,-0.076,1.263,83,0,109.6,13.6,0.68,26.7
"2010-03-15 00:02:00",1762843,11.28,60.84,3.757,0.384,6.82,100.2383,-0.092,1.251,83.1,0,109.6,13.6,0.66,22.8
"2010-03-15 00:02:30",1762844,11.18,59.28,3.99,0.572,6.674,100.2378,-0.093,1.254,83.1,0,109.6,13.6,0.66,21.3
"2010-03-15 00:03:00",1762845,10.38,61.3,4.29,0.709,6.684,100.2381,-0.093,1.258,83.2,0,109.6,13.6,0.66,23.3
"2010-03-15 00:03:30",1762846,10.28,59.14,3.839,0.602,6.526,100.2383,-0.092,1.215,83.3,0,109.6,13.6,0.66,21.1
"2010-03-15 00:04:00",1762847,10.4,60.59,3.847,0.689,6.725,100.2378,-0.093,1.228,83.4,0,109.6,13.6,0.66,22.6
"2010-03-15 00:04:30",1762848,10.86,57.57,4.542,0.752,6.629,100.2375,-0.094,1.214,83.5,0,109.6,13.6,0.66,19.6
"2010-03-15 00:05:00",1762849,10.79,57.04,4.293,0.503,6.656,100.233,-0.106,1.227,83.5,0,109.6,13.6,0.65,19.0
"2010-03-15 00:05:30",1762850,10.5,59.83,4.055,0.612,6.675,100.2225,-0.132,1.213,83.5,0,109.6,13.6,0.62,21.8
"2010-03-15 00:06:00",1762851,10.72,60.37,3.635,0.653,6.646,100.216,-0.149,1.2,83.6,0,109.6,13.6,0.60,22.4
"2010-03-15 00:06:30",1762852,10.6,58.53,4.623,0.533,6.66,100.2095,-0.166,1.188,83.7,0,109.6,13.59,0.59,20.5
"2010-03-15 00:07:00",1762853,11.23,58.16,4.351,0.618,6.651,100.2064,-0.173,1.199,83.7,0,109.6,13.59,0.58,20.2
"2010-03-15 00:07:30",1762854,10.68,59.3,5.127,0.629,6.75,100.2046,-0.178,1.166,83.8,0,109.6,13.59,0.57,21.3
"2010-03-15 00:08:00",1762855,10.21,59.6,4.488,0.553,6.777,100.2052,-0.176,1.18,83.9,0,109.6,13.59,0.57,21.6
"2010-03-15 00:08:30",1762856,10.34,61.05,4.407,0.37,6.617,100.2064,-0.173,1.161,84,0,109.6,13.59,0.58,23.0
"2010-03-15 00:09:00",1762857,10.12,61.2,4.004,0.627,6.412,100.2072,-0.171,1.162,84.1,0,109.6,13.59,0.58,23.2
"2010-03-15 00:09:30",1762858,10.76,61.39,3.966,0.683,6.373,100.199,-0.192,1.144,84.2,0,109.6,13.59,0.56,23.4
"2010-03-15 00:10:00",1762859,11.07,59.6,4.273,0.664,6.489,100.1829,-0.233,1.139,84.3,0,109.6,13.59,0.52,21.6
"2010-03-15 00:10:30",1762860,11.3,56.76,4.783,0.691,6.372,100.173,-0.259,1.113,84.3,0,109.6,13.59,0.49,18.8
"2010-03-15 00:11:00",1762861,11.32,58.44,4.823,0.727,6.452,100.1752,-0.253,1.128,84.4,0,109.6,13.59,0.50,20.4
"2010-03-15 00:11:30",1762862,11.01,64.69,3.988,0.648,6.596,100.1752,-0.253,1.12,84.5,0,109.6,13.59,0.50,26.7
"2010-03-15 00:12:00",1762863,10.58,59.99,5.333,0.765,6.648,100.1769,-0.249,1.089,84.7,0,109.6,13.6,0.50,22.0
"2010-03-15 00:12:30",1762864,10.4,56.02,4.77,0.611,6.645,100.1786,-0.244,1.072,84.8,0,109.6,13.6,0.51,18.0
"2010-03-15 00:13:00",1762865,10.18,59.79,4.739,0.607,6.396,100.1778,-0.246,1.08,84.8,0,109.6,13.6,0.50,21.8
"2010-03-15 00:13:30",1762866,10.89,60.55,4.973,0.962,6.319,100.1772,-0.248,1.062,85,0,109.6,13.6,0.50,22.5
"2010-03-15 00:14:00",1762867,11.56,53.23,4.909,0.772,6.569,100.1679,-0.272,1.053,85.1,0,109.6,13.6,0.48,15.2
"2010-03-15 00:14:30",1762868,10.54,60.44,4.145,0.69,6.395,100.1517,-0.313,1.046,85.2,0,109.6,13.6,0.44,22.4
"2010-03-15 00:15:00",1762869,10.53,56.52,3.621,0.852,6.396,100.1447,-0.331,1.035,85.4,0,109.6,13.6,0.42,18.5
"2010-03-15 00:15:30",1762870,10.04,56.52,6.421,0.624,6.393,100.1447,-0.331,1.016,85.5,0,109.6,13.6,0.42,18.5
"2010-03-15 00:16:00",1762871,10.76,60.95,4.654,0.502,6.395,100.1464,-0.326,1.007,85.7,0,109.6,13.6,0.42,23.0
"2010-03-15 00:16:30",1762872,10.81,55.56,4.785,0.871,6.381,100.1466,-0.326,1.001,85.8,0,109.6,13.6,0.43,17.6
"2010-03-15 00:17:00",1762873,9.32,59.37,4.477,0.824,6.185,100.141,-0.34,1.003,86,0,109.6,13.6,0.41,21.4
"2010-03-15 00:17:30",1762874,10.76,59.2,3.392,0.657,6.104,100.1322,-0.363,0.981,86.1,0,109.6,13.6,0.39,21.2
"2010-03-15 00:18:00",1762875,11.28,60.63,4.217,0.439,6.46,100.1257,-0.379,0.97,86.3,0,109.6,13.6,0.37,22.6
"2010-03-15 00:18:30",1762876,11.1,58.57,4.236,0.655,6.235,100.1141,-0.409,0.958,86.5,0,109.6,13.6,0.34,20.6
"2010-03-15 00:19:00",1762877,10.97,57.91,4.935,0.7,6.408,100.1158,-0.404,0.954,86.6,0,109.6,13.6,0.35,19.9
"2010-03-15 00:19:30",1762878,10.79,59.83,4.679,0.551,6.384,100.1076,-0.425,0.937,86.8,0,109.6,13.6,0.33,21.8
"2010-03-15 00:20:00",1762879,11.02,55.19,3.704,0.595,6.542,100.0937,-0.461,0.915,86.9,0,109.6,13.6,0.29,17.2
"2010-03-15 00:20:30",1762880,10.95,55.77,4.125,0.62,6.495,100.0846,-0.484,0.888,87,0,109.6,13.6,0.27,17.8
"2010-03-15 00:21:00",1762881,10.7,62.02,4.727,0.704,6.56,100.0844,-0.484,0.871,87.1,0,109.6,13.6,0.27,24.0
"2010-03-15 00:21:30",1762882,10.61,63.48,3.871,0.657,6.48,100.0855,-0.482,0.872,87.2,0,109.6,13.6,0.27,25.5
"2010-03-15 00:22:00",1762883,10.55,66.21,3.666,0.652,6.442,100.0869,-0.478,0.858,87.3,0,109.6,13.6,0.27,28.2
"2010-03-15 00:22:30",1762884,10.46,59.4,4.233,0.525,6.343,100.0858,-0.481,0.848,87.3,0,109.5,13.6,0.27,21.4
"2010-03-15 00:23:00",1762885,10.28,61.92,4.476,0.723,6.303,100.0852,-0.482,0.83,87.5,0,109.6,13.6,0.27,23.9
"2010-03-15 00:23:30",1762886,10.39,59.19,4.28,0.88,6.147,100.0855,-0.482,0.817,87.5,0,109.5,13.59,0.27,21.2
"2010-03-15 00:24:00",1762887,11.09,58.33,4.226,0.736,6.251,100.0796,-0.497,0.814,87.6,0,109.5,13.59,0.25,20.3
"2010-03-15 00:24:30",1762888,10.41,56.62,4.301,0.588,6.22,100.0682,-0.526,0.809,87.7,0,109.6,13.59,0.22,18.6
"2010-03-15 00:25:00",1762889,10.44,54.85,4.463,0.798,6.28,100.0671,-0.529,0.807,87.8,0,109.5,13.59,0.22,16.8
"2010-03-15 00:25:30",1762890,10.88,58.56,4.054,0.689,6.135,100.0603,-0.546,0.797,88,0,109.5,13.59,0.20,20.6
"2010-03-15 00:26:00",1762891,10.55,59.06,3.807,0.712,6.297,100.058,-0.552,0.781,88,0,109.5,13.59,0.20,21.1
"2010-03-15 00:26:30",1762892,10.28,62.67,4.003,0.77,6.134,100.0589,-0.549,0.759,88.1,0,109.6,13.59,0.20,24.7
"2010-03-15 00:27:00",1762893,10.1,59,6.192,0.681,6.245,100.0586,-0.55,0.766,88.2,0,109.5,13.59,0.20,21.0
"2010-03-15 00:27:30",1762894,9.98,50.82,4.392,0.769,6.163,100.0575,-0.553,0.737,88.3,0,109.5,13.6,0.20,12.8
"2010-03-15 00:28:00",1762895,9.99,54.89,4.371,0.707,6.17,100.0529,-0.565,0.729,88.4,0,109.5,13.6,0.19,16.9
"2010-03-15 00:28:30",1762896,9.44,60.23,4.033,0.691,6.11,100.0405,-0.596,0.726,88.5,0,109.6,13.6,0.15,22.2
"2010-03-15 00:29:00",1762897,8.86,55.88,4.854,0.631,5.78,100.0351,-0.61,0.732,88.6,0,109.5,13.6,0.14,17.9
"2010-03-15 00:29:30",1762898,9.08,53.16,5.16,0.58,5.739,100.0286,-0.627,0.716,88.6,0,109.5,13.6,0.12,15.2
"2010-03-15 00:30:00",1762899,8.64,54.21,4.46,0.734,5.835,100.0238,-0.639,0.708,88.7,0,109.5,13.6,0.11,16.2
"2010-03-15 00:30:30",1762900,8.44,59.9,5.67,0.803,5.545,100.0232,-0.64,0.686,88.8,0,109.6,13.6,0.11,21.9
"2010-03-15 00:31:00",1762901,8.78,60.39,4.651,0.647,5.636,100.0243,-0.638,0.707,88.9,0,109.5,13.6,0.11,22.4
"2010-03-15 00:31:30",1762902,9.03,55.78,4.843,0.798,5.638,100.0249,-0.636,0.694,89,0,109.5,13.6,0.11,17.8
"2010-03-15 00:32:00",1762903,9.38,59.65,2.555,0.77,5.587,100.0246,-0.637,0.674,89.1,0,109.5,13.6,0.11,21.7
"2010-03-15 00:32:30",1762904,9.89,61.25,5.103,0.384,5.716,100.0249,-0.636,0.682,89.1,0,109.6,13.6,0.11,23.2
"2010-03-15 00:33:00",1762905,8.93,58.16,4.645,0.775,5.702,100.0255,-0.635,0.675,89.2,0,109.5,13.6,0.12,20.2
"2010-03-15 00:33:30",1762906,9.36,53.98,4.06,1.041,5.443,100.0255,-0.635,0.665,89.2,0,109.5,13.6,0.12,16.0
"2010-03-15 00:34:00",1762907,10.17,52.14,4.291,0.796,5.607,100.0235,-0.64,0.657,89.3,0,109.5,13.6,0.11,14.1
"2010-03-15 00:34:30",1762908,10.97,57.95,3.822,0.751,5.655,100.015,-0.661,0.646,89.3,0,109.6,13.6,0.09,20.0
"2010-03-15 00:35:00",1762909,11.36,58.05,4.125,0.632,5.835,100.0088,-0.677,0.656,89.4,0,109.5,13.6,0.07,20.0
"2010-03-15 00:35:30",1762910,11.86,59.96,3.687,0.74,6.031,100.0034,-0.691,0.631,89.5,0,109.5,13.6,0.06,22.0
"2010-03-15 00:36:00",1762911,11.55,62.53,5.523,0.669,6.281,99.99292,-0.718,0.628,89.5,0,109.5,13.6,0.03,24.5
"2010-03-15 00:36:30",1762912,11.74,58.28,4.378,0.632,6.258,99.99179,-0.721,0.61,89.5,0,109.6,13.6,0.03,20.3
"2010-03-15 00:37:00",1762913,11.31,58.68,4.397,0.708,6.293,99.99207,-0.72,0.607,89.5,0,109.5,13.6,0.03,20.7
"2010-03-15 00:37:30",1762914,11.21,61.54,3.994,0.686,6.12,99.99179,-0.721,0.576,89.5,0,109.5,13.6,0.03,23.5
"2010-03-15 00:38:00",1762915,10.92,62.73,3.292,0.646,6.324,99.99349,-0.716,0.583,89.6,0,109.5,13.6,0.03,24.7
"2010-03-15 00:38:30",1762916,11.22,62.72,4.132,0.571,6.351,99.99179,-0.721,0.57,89.6,0,109.5,13.6,0.03,24.7
"2010-03-15 00:39:00",1762917,11.87,61.92,4.367,0.699,6.276,99.98584,-0.736,0.572,89.6,0,109.5,13.6,0.01,23.9
"2010-03-15 00:39:30",1762918,10.95,61.98,3.966,0.735,6.388,99.97876,-0.754,0.544,89.6,0,109.5,13.6,-0.00,24.0
"2010-03-15 00:40:00",1762919,11.35,59.76,4.435,0.618,6.388,99.97451,-0.765,0.534,89.6,0,109.5,13.6,-0.02,21.8
"2010-03-15 00:40:30",1762920,11.48,64.17,4.829,0.502,6.447,99.97225,-0.77,0.54,89.6,0,109.5,13.6,-0.02,26.2
"2010-03-15 00:41:00",1762921,11.01,64.96,5.4,0.763,6.465,99.9663,-0.785,0.535,89.7,0,109.5,13.6,-0.04,27.0
"2010-03-15 00:41:30",1762922,10.81,59.33,3.977,0.894,6.246,99.96262,-0.795,0.521,89.7,0,109.5,13.6,-0.05,21.3
"2010-03-15 00:42:00",1762923,11.14,60.58,2.638,0.862,6.279,99.96233,-0.796,0.508,89.7,0,109.5,13.6,-0.05,22.6
"2010-03-15 00:42:30",1762924,11.89,57.52,3.964,0.566,6.157,99.96177,-0.797,0.506,89.7,0,109.5,13.6,-0.05,19.5
"2010-03-15 00:43:00",1762925,11.61,60.59,5.472,0.718,6.325,99.9629,-0.794,0.51,89.7,0,109.5,13.6,-0.04,22.6
"2010-03-15 00:43:30",1762926,11.14,57.82,5.077,0.733,6.4,99.96432,-0.791,0.486,89.7,0,109.5,13.6,-0.04,19.8
"2010-03-15 00:44:00",1762927,11.39,55.75,4.08,0.759,6.398,99.9646,-0.79,0.487,89.7,0,109.5,13.6,-0.04,17.8
"2010-03-15 00:44:30",1762928,11.57,62.53,3.954,0.616,6.35,99.96403,-0.791,0.479,89.7,0,109.6,13.6,-0.04,24.5
"2010-03-15 00:45:00",1762929,11.47,62.97,4.056,0.625,6.296,99.96545,-0.788,0.485,89.7,0,109.5,13.6,-0.04,25.0
"2010-03-15 00:45:30",1762930,11.55,59.91,4.939,0.571,6.438,99.96545,-0.788,0.473,89.7,0,109.5,13.61,-0.04,21.9
"2010-03-15 00:46:00",1762931,10.51,59.47,2.874,0.855,6.4,99.96488,-0.789,0.473,89.8,0,109.5,13.61,-0.04,21.5
"2010-03-15 00:46:30",1762932,10.13,56.86,4.673,0.548,6.345,99.96347,-0.793,0.468,89.8,0,109.5,13.61,-0.04,18.9
"2010-03-15 00:47:00",1762933,9.95,55.81,4.139,0.609,6.241,99.9612,-0.798,0.484,89.8,0,109.5,13.61,-0.05,17.8
"2010-03-15 00:47:30",1762934,9.8,58.85,4.918,0.716,6.164,99.95979,-0.802,0.457,89.8,0,109.5,13.61,-0.05,20.8
"2010-03-15 00:48:00",1762935,11.19,57.54,4.358,0.883,6.166,99.95922,-0.804,0.444,89.8,0,109.5,13.61,-0.05,19.5
"2010-03-15 00:48:30",1762936,11.27,56.21,4.602,0.703,6.055,99.95525,-0.814,0.442,89.8,0,109.6,13.61,-0.06,18.2
"2010-03-15 00:49:00",1762937,11.28,63.29,3.474,0.628,6.153,99.94987,-0.827,0.465,89.8,0,109.5,13.61,-0.08,25.3
"2010-03-15 00:49:30",1762938,11.41,59.78,4.923,0.579,6.216,99.94817,-0.832,0.449,89.8,0,109.5,13.61,-0.08,21.8
"2010-03-15 00:50:00",1762939,11.52,61.76,4.869,0.636,6.442,99.94619,-0.837,0.436,89.7,0,109.5,13.61,-0.09,23.8
"2010-03-15 00:50:30",1762940,12.11,62.85,4.309,0.551,6.361,99.94478,-0.84,0.454,89.7,0,109.5,13.61,-0.09,24.8
"2010-03-15 00:51:00",1762941,11.99,62.04,4.469,0.674,6.369,99.94364,-0.843,0.452,89.7,0,109.5,13.61,-0.09,24.0
"2010-03-15 00:51:30",1762942,10.89,58.5,3.908,0.85,6.348,99.94421,-0.842,0.445,89.7,0,109.5,13.61,-0.09,20.5
"2010-03-15 00:52:00",1762943,10.83,60.33,3.999,0.849,6.414,99.94336,-0.844,0.434,89.7,0,109.5,13.61,-0.09,22.3
"2010-03-15 00:52:30",1762944,11.21,61.91,4.225,0.738,6.263,99.94138,-0.849,0.437,89.6,0,109.6,13.61,-0.10,23.9
"2010-03-15 00:53:00",1762945,11.11,61.98,4.593,0.743,6.25,99.93799,-0.858,0.416,89.6,0,109.5,13.61,-0.11,24.0
"2010-03-15 00:53:30",1762946,11.65,65.25,4.159,0.635,6.368,99.93855,-0.856,0.417,89.5,0,109.5,13.61,-0.11,27.2
"2010-03-15 00:54:00",1762947,11.49,64.16,4.323,0.824,6.363,99.93771,-0.858,0.428,89.5,0,109.5,13.61,-0.11,26.2
"2010-03-15 00:54:30",1762948,11.25,63.48,4.586,0.616,6.367,99.93826,-0.857,0.416,89.4,0,109.5,13.61,-0.11,25.5
"2010-03-15 00:55:00",1762949,10.78,65.07,4.586,0.828,6.25,99.93912,-0.855,0.413,89.4,0,109.5,13.61,-0.11,27.1
"2010-03-15 00:55:30",1762950,10.38,65,3.658,0.785,6.107,99.93884,-0.856,0.431,89.4,0,109.5,13.6,-0.11,27.0
"2010-03-15 00:56:00",1762951,11.16,61.09,4.106,0.8,6.205,99.93742,-0.859,0.412,89.3,0,109.5,13.6,-0.11,23.1
"2010-03-15 00:56:30",1762952,11.37,62.64,3.967,0.624,6.227,99.93516,-0.865,0.403,89.3,0,109.5,13.6,-0.12,24.6
"2010-03-15 00:57:00",1762953,11.08,59.44,4.774,0.663,6.223,99.93346,-0.869,0.424,89.3,0,109.5,13.6,-0.12,21.4
"2010-03-15 00:57:30",1762954,10.76,63.52,4.318,0.631,6.284,99.93487,-0.866,0.413,89.2,0,109.5,13.6,-0.12,25.5
"2010-03-15 00:58:00",1762955,10.36,61.73,4.761,0.772,6.358,99.93261,-0.871,0.399,89.2,0,109.5,13.6,-0.12,23.7
"2010-03-15 00:58:30",1762956,11.42,59.2,5.08,0.711,6.189,99.93261,-0.871,0.391,89.1,0,109.5,13.6,-0.12,21.2
"2010-03-15 00:59:00",1762957,11.24,60.86,4.699,0.79,6.285,99.93346,-0.869,0.417,89.1,0,109.5,13.6,-0.12,22.9
"2010-03-15 00:59:30",1762958,11,62.16,4.518,0.791,6.156,99.93261,-0.871,0.405,89,0,109.5,13.6,-0.12,24.2
"2010-03-15 01:00:00",1762959,11.11,59.08,4.284,0.784,6.328,99.93233,-0.872,0.403,89,0,109.5,13.6,-0.12,21.1
"2010-03-15 01:00:30",1762960,11.34,60.14,4.606,0.607,6.354,99.93204,-0.873,0.404,88.9,0,109.5,13.61,-0.12,22.1
"2010-03-15 01:01:00",1762961,11.58,61.9,4.396,0.908,6.199,99.93204,-0.873,0.411,88.9,0,109.5,13.61,-0.12,23.9
"2010-03-15 01:01:30",1762962,11.36,62.1,4.501,0.704,6.301,99.93204,-0.873,0.398,88.8,0,109.5,13.61,-0.12,24.1
"2010-03-15 01:02:00",1762963,11.17,59.9,3.375,0.664,6.387,99.93204,-0.873,0.391,88.8,0,109.5,13.61,-0.12,21.9
"2010-03-15 01:02:30",1762964,11.03,58.51,4.08,0.657,6.327,99.93233,-0.872,0.405,88.8,0,109.5,13.61,-0.12,20.5
"2010-03-15 01:03:00",1762965,10.92,59.19,4.556,0.683,6.264,99.93204,-0.873,0.433,88.7,0,109.5,13.61,-0.12,21.2
"2010-03-15 01:03:30",1762966,11.08,59.75,4.199,0.637,6.382,99.93204,-0.873,0.417,88.7,0,109.5,13.62,-0.12,21.8
"2010-03-15 01:04:00",1762967,11.36,61.27,3.56,0.663,6.463,99.93204,-0.873,0.394,88.7,0,109.5,13.62,-0.12,23.3
"2010-03-15 01:04:30",1762968,11.47,60.78,4.092,0.499,6.319,99.93204,-0.873,0.401,88.6,0,109.5,13.62,-0.12,22.8
"2010-03-15 01:05:00",1762969,11.6,61.25,3.822,0.633,6.382,99.93204,-0.873,0.428,88.6,0,109.5,13.62,-0.12,23.2
"2010-03-15 01:05:30",1762970,11.85,60.94,3.929,0.653,6.303,99.93204,-0.873,0.387,88.5,0,109.5,13.61,-0.12,22.9
"2010-03-15 01:06:00",1762971,11.68,60.75,3.115,0.652,6.488,99.93204,-0.873,0.375,88.5,0,109.5,13.62,-0.12,22.8
"2010-03-15 01:06:30",1762972,11.77,61.8,3.972,0.66,6.317,99.93204,-0.873,0.376,88.4,0,109.6,13.62,-0.12,23.8
"2010-03-15 01:07:00",1762973,11.7,60.2,3.975,0.644,6.442,99.93204,-0.873,0.388,88.3,0,109.5,13.62,-0.12,22.2
"2010-03-15 01:07:30",1762974,11.63,61.66,4.423,0.659,6.449,99.93204,-0.873,0.376,88.3,0,109.5,13.62,-0.12,23.7
"2010-03-15 01:08:00",1762975,11.82,63.37,3.727,0.645,6.535,99.93204,-0.873,0.388,88.3,0,109.5,13.62,-0.12,25.4
"2010-03-15 01:08:30",1762976,11.85,61.07,4.454,0.646,6.519,99.93204,-0.873,0.384,88.2,0,109.5,13.62,-0.12,23.1
"2010-03-15 01:09:00",1762977,11.89,62.09,4.172,0.66,6.524,99.93204,-0.873,0.396,88.2,0,109.5,13.62,-0.12,24.1
"2010-03-15 01:09:30",1762978,11.4,61.16,4.136,0.691,6.451,99.93204,-0.873,0.383,88.2,0,109.5,13.62,-0.12,23.2
"2010-03-15 01:10:00",1762979,11.14,62.18,3.461,0.7,6.457,99.93204,-0.873,0.373,88.1,0,109.5,13.62,-0.12,24.2
"2010-03-15 01:10:30",1762980,11.11,61.69,5.017,0.599,6.444,99.93204,-0.873,0.386,88,0,109.5,13.62,-0.12,23.7
"2010-03-15 01:11:00",1762981,11.26,58.2,4.442,0.628,6.365,99.93204,-0.873,0.394,88,0,109.5,13.62,-0.12,20.2
"2010-03-15 01:11:30",1762982,10.21,58.87,4.55,0.788,6.364,99.93204,-0.873,0.388,87.9,0,109.5,13.61,-0.12,20.9
"2010-03-15 01:12:00",1762983,10.2,63.63,4.931,0.79,6.45,99.93204,-0.873,0.375,87.9,0,109.5,13.61,-0.12,25.6
"2010-03-15 01:12:30",1762984,10.52,60.98,3.942,0.667,6.241,99.93204,-0.873,0.396,87.8,0,109.5,13.61,-0.12,23.0
"2010-03-15 01:13:00",1762985,10.98,61.23,3.868,0.778,6.181,99.93204,-0.873,0.405,87.8,0,109.5,13.6,-0.12,23.2
"2010-03-15 01:13:30",1762986,10.91,58.02,4.483,0.783,6.245,99.93204,-0.873,0.39,87.7,0,109.5,13.6,-0.12,20.0
"2010-03-15 01:14:00",1762987,11.19,59.43,3.487,0.696,6.312,99.93204,-0.873,0.399,87.7,0,109.5,13.6,-0.12,21.4
"2010-03-15 01:14:30",1762988,11.44,58.06,4.192,0.734,6.25,99.93204,-0.873,0.382,87.6,0,109.6,13.61,-0.12,20.1
"2010-03-15 01:15:00",1762989,11.13,58.1,3.918,0.76,6.274,99.93204,-0.873,0.413,87.6,0,109.5,13.6,-0.12,20.1
"2010-03-15 01:15:30",1762990,11.29,58.99,3.966,0.758,6.304,99.93204,-0.873,0.39,87.6,0,109.5,13.6,-0.12,21.0
"2010-03-15 01:16:00",1762991,10.73,60.78,3.456,0.778,6.271,99.93204,-0.873,0.396,87.5,0,109.5,13.61,-0.12,22.8
"2010-03-15 01:16:30",1762992,10.97,58.97,3.079,0.705,6.212,99.93204,-0.873,0.389,87.4,0,109.5,13.61,-0.12,21.0
"2010-03-15 01:17:00",1762993,10.52,60.47,3.699,0.715,6.331,99.93204,-0.873,0.424,87.4,0,109.5,13.61,-0.12,22.5
"2010-03-15 01:17:30",1762994,10.82,60.68,3.719,0.985,6.115,99.93204,-0.873,0.4,87.4,0,109.5,13.62,-0.12,22.7
"2010-03-15 01:18:00",1762995,11.67,59.7,3.475,0.676,6.372,99.93204,-0.873,0.397,87.3,0,109.5,13.62,-0.12,21.7
"2010-03-15 01:18:30",1762996,11.61,60.1,3.719,0.571,6.347,99.93204,-0.873,0.387,87.2,0,109.5,13.62,-0.12,22.1
"2010-03-15 01:19:00",1762997,11.09,60.78,3.997,0.65,6.327,99.93204,-0.873,0.398,87.1,0,109.5,13.62,-0.12,22.8
"2010-03-15 01:19:30",1762998,11.2,59.16,5.364,0.724,6.34,99.93204,-0.873,0.405,87.1,0,109.5,13.62,-0.12,21.2
"2010-03-15 01:20:00",1762999,10.78,58.79,4.068,0.667,6.47,99.93204,-0.873,0.385,87,0,109.5,13.62,-0.12,20.8
"2010-03-15 01:20:30",1763000,11.07,61.96,3.672,0.545,6.269,99.93204,-0.873,0.383,86.9,0,109.5,13.62,-0.12,24.0
"2010-03-15 01:21:00",1763001,11.16,62.4,3.687,0.812,6.169,99.93204,-0.873,0.385,86.8,0,109.5,13.62,-0.12,24.4
"2010-03-15 01:21:30",1763002,11.1,59.93,3.737,0.813,6.125,99.93204,-0.873,0.396,86.7,0,109.5,13.62,-0.12,21.9
"2010-03-15 01:22:00",1763003,11.4,63.61,3.014,0.641,6.309,99.93204,-0.873,0.387,86.7,0,109.5,13.62,-0.12,25.6
"2010-03-15 01:22:30",1763004,11.77,63.1,3.174,0.668,6.246,99.93204,-0.873,0.388,86.6,0,109.5,13.62,-0.12,25.1
"2010-03-15 01:23:00",1763005,11.24,61.91,3.558,0.724,6.236,99.93204,-0.873,0.398,86.6,0,109.5,13.62,-0.12,23.9
"2010-03-15 01:23:30",1763006,11.13,61.85,5.1,0.654,6.272,99.93204,-0.873,0.387,86.6,0,109.5,13.62,-0.12,23.8
"2010-03-15 01:24:00",1763007,11.19,61.26,2.943,0.757,6.218,99.93204,-0.873,0.408,86.5,0,109.5,13.62,-0.12,23.3
"2010-03-15 01:24:30",1763008,11.56,58.99,3.845,0.573,6.232,99.93204,-0.873,0.393,86.5,0,109.5,13.62,-0.12,21.0
"2010-03-15 01:25:00",1763009,11.58,59.19,3.349,0.756,6.254,99.93204,-0.873,0.415,86.4,0,109.5,13.62,-0.12,21.2
"2010-03-15 01:25:30",1763010,11.19,60.61,3.014,0.848,6.115,99.93204,-0.873,0.385,86.4,0,109.5,13.62,-0.12,22.6
"2010-03-15 01:26:00",1763011,11.25,60.17,3.607,0.638,6.285,99.93204,-0.873,0.405,86.4,0,109.5,13.62,-0.12,22.2
"2010-03-15 01:26:30",1763012,11.56,60.82,4.035,0.599,6.248,99.93204,-0.873,0.401,86.3,0,109.5,13.62,-0.12,22.8
"2010-03-15 01:27:00",1763013,11.09,60.78,3.766,0.804,6.246,99.93204,-0.873,0.4,86.3,0,109.5,13.62,-0.12,22.8
"2010-03-15 01:27:30",1763014,11.18,57.19,3.931,0.84,6.229,99.93204,-0.873,0.383,86.3,0,109.5,13.61,-0.12,19.2
"2010-03-15 01:28:00",1763015,10.61,57.32,3.849,0.739,6.355,99.93204,-0.873,0.383,86.3,0,109.5,13.61,-0.12,19.3
"2010-03-15 01:28:30",1763016,10.23,58.27,3.345,0.656,6.121,99.93204,-0.873,0.406,86.3,0,109.5,13.61,-0.12,20.3
"2010-03-15 01:29:00",1763017,10.53,57.47,3.832,0.78,6.044,99.93204,-0.873,0.397,86.3,0,109.5,13.61,-0.12,19.5
"2010-03-15 01:29:30",1763018,10.99,55.94,3.302,0.711,6,99.93176,-0.874,0.396,86.3,0,109.5,13.61,-0.12,17.9
"2010-03-15 01:30:00",1763019,10.13,59.59,2.447,0.795,6.023,99.92722,-0.885,0.393,86.4,0,109.5,13.61,-0.14,21.6
"2010-03-15 01:30:30",1763020,9.97,54.97,3.363,0.775,5.991,99.91873,-0.907,0.392,86.4,0,109.5,13.61,-0.16,17.0
"2010-03-15 01:31:00",1763021,10.93,54.6,3.785,0.733,5.895,99.91137,-0.926,0.397,86.5,0,109.5,13.61,-0.18,16.6
"2010-03-15 01:31:30",1763022,10.58,55.79,3.941,0.797,5.926,99.90485,-0.942,0.378,86.5,0,109.5,13.61,-0.19,17.8
"2010-03-15 01:32:00",1763023,10.21,55.7,2.759,0.732,6,99.89863,-0.958,0.378,86.6,0,109.5,13.61,-0.21,17.7
"2010-03-15 01:32:30",1763024,10.35,54.95,3.865,0.636,5.883,99.89806,-0.959,0.363,86.7,0,109.5,13.61,-0.21,17.0
"2010-03-15 01:33:00",1763025,10.16,57.63,3.755,0.727,5.88,99.89834,-0.959,0.375,86.7,0,109.5,13.62,-0.21,19.6
"2010-03-15 01:33:30",1763026,10.36,55.54,3.217,0.799,5.826,99.89806,-0.959,0.349,86.8,0,109.5,13.62,-0.21,17.5
"2010-03-15 01:34:00",1763027,10.29,57.99,2.987,0.838,5.919,99.89778,-0.96,0.322,86.9,0,109.5,13.62,-0.21,20.0
"2010-03-15 01:34:30",1763028,10.49,56.36,3.189,0.651,5.942,99.89183,-0.975,0.327,87,0,109.5,13.62,-0.23,18.4
"2010-03-15 01:35:00",1763029,10.19,57.18,3.352,0.745,5.911,99.8822,-1,0.323,87,0,109.5,13.62,-0.25,19.2
"2010-03-15 01:35:30",1763030,10.29,57.23,4.06,0.685,5.894,99.87937,-1.007,0.317,87,0,109.5,13.62,-0.26,19.2
"2010-03-15 01:36:00",1763031,10.51,57.02,3.874,0.625,5.978,99.87711,-1.013,0.32,87.1,0,109.5,13.62,-0.26,19.0
"2010-03-15 01:36:30",1763032,10.54,57.52,3.398,0.636,5.843,99.8689,-1.034,0.303,87.1,0,109.5,13.62,-0.29,19.5
"2010-03-15 01:37:00",1763033,10.29,59.72,3.739,0.732,5.903,99.86436,-1.045,0.304,87.2,0,109.5,13.62,-0.30,21.7
"2010-03-15 01:37:30",1763034,10.18,58.86,3.037,0.827,5.786,99.86408,-1.046,0.289,87.3,0,109.5,13.62,-0.30,20.9
"2010-03-15 01:38:00",1763035,10.37,59.97,2.069,0.8,5.887,99.86408,-1.046,0.278,87.3,0,109.5,13.62,-0.30,22.0
"2010-03-15 01:38:30",1763036,10.61,60.45,3.001,0.787,5.678,99.86408,-1.046,0.262,87.4,0,109.5,13.62,-0.30,22.5
"2010-03-15 01:39:00",1763037,10.88,60.95,4.165,0.621,5.974,99.86379,-1.047,0.272,87.4,0,109.5,13.62,-0.30,23.0
"2010-03-15 01:39:30",1763038,10.71,61.54,3.408,0.811,5.893,99.85416,-1.071,0.258,87.5,0,109.5,13.62,-0.32,23.5
"2010-03-15 01:40:00",1763039,10.87,61.96,3.37,0.717,6.047,99.84963,-1.083,0.247,87.5,0,109.5,13.62,-0.33,24.0
"2010-03-15 01:40:30",1763040,11.38,60.32,3.976,0.622,5.937,99.84624,-1.092,0.241,87.6,0,109.6,13.62,-0.34,22.3
"2010-03-15 01:41:00",1763041,11.33,59.22,4.059,0.693,5.972,99.84284,-1.1,0.248,87.6,0,109.5,13.62,-0.35,21.2
"2010-03-15 01:41:30",1763042,11.51,62.23,3.354,0.764,5.994,99.83492,-1.12,0.231,87.7,0,109.5,13.62,-0.37,24.2
"2010-03-15 01:42:00",1763043,11.05,63.82,2.71,0.809,6.119,99.83067,-1.131,0.209,87.7,0,109.5,13.62,-0.38,25.8
"2010-03-15 01:42:30",1763044,11.45,62.07,3.569,0.774,5.904,99.83123,-1.13,0.211,87.7,0,109.5,13.62,-0.38,24.1
"2010-03-15 01:43:00",1763045,11.56,63.19,2.959,0.86,5.93,99.8301,-1.133,0.198,87.7,0,109.5,13.62,-0.38,25.2
"2010-03-15 01:43:30",1763046,11.49,63.07,3.175,0.683,6.102,99.83067,-1.131,0.197,87.7,0,109.5,13.62,-0.38,25.1
"2010-03-15 01:44:00",1763047,11.53,65.04,2.435,0.736,6.115,99.83208,-1.128,0.178,87.8,0,109.5,13.62,-0.38,27.0
"2010-03-15 01:44:30",1763048,11.33,60.98,3.784,0.727,5.999,99.83123,-1.13,0.168,87.8,0,109.5,13.62,-0.38,23.0
"2010-03-15 01:45:00",1763049,11.16,63.4,3.38,0.668,6.052,99.83292,-1.125,0.187,87.8,0,109.5,13.62,-0.38,25.4
"2010-03-15 01:45:30",1763050,11.09,64.18,3.413,0.742,5.998,99.83123,-1.13,0.15,87.9,0,109.5,13.62,-0.38,26.2
"2010-03-15 01:46:00",1763051,11.19,66.24,1.815,0.839,6.021,99.83208,-1.128,0.154,87.9,0,109.5,13.62,-0.38,28.2
"2010-03-15 01:46:30",1763052,11.09,64.2,2.875,0.727,5.822,99.82755,-1.139,0.138,87.9,0,109.5,13.61,-0.39,26.2
"2010-03-15 01:47:00",1763053,11.04,62.24,2.929,0.823,5.934,99.81991,-1.159,0.151,88,0,109.5,13.62,-0.41,24.2
"2010-03-15 01:47:30",1763054,10.8,65.39,3.04,0.823,5.85,99.81566,-1.17,0.125,88,0,109.5,13.62,-0.42,27.4
"2010-03-15 01:48:00",1763055,11.1,65.06,3.308,0.739,6.017,99.81113,-1.181,0.133,88,0,109.5,13.62,-0.43,27.1